Time,TemperatureF,DewpointF,PressureIn,WindDirection,WindDirectionDegrees,WindSpeedMPH,WindSpeedGustMPH,Humidity,HourlyPrecipIn,Conditions,Clouds,dailyrainin,SoftwareType,DateUTC
2013-02-12 00:00:00,34.9,27.8,30.00,East,83,6.0,6.0,75,0.00,RA,,0.00,WeatherDisplay:10.37,2013-02-12 00:00:00,
2013-02-12 00:15:00,35.0,27.9,30.00,NE,51,6.0,8.0,75,0.00,CLR,,0.00,WeatherDisplay:10.37,2013-02-12 00:15:00,
2013-02-12 00:30:00,35.1,27.6,30.00,East,79,8.0,10.0,74,0.00,CLR,,0.00,WeatherDisplay:10.37,2013-02-12 00:30:00,
2013-02-12 00:45:00,35.1,27.6,30.00,ENE,59,5.0,7.0,74,0.00,CLR,,0.00,WeatherDisplay:10.37,2013-02-12 00:45:00,
2013-02-12 01:00:00,35.1,27.6,30.00,NE,45,6.0,10.0,74,0.00,CLR,,0.00,WeatherDisplay:10.37,2013-02-12 01:00:00,
2013-02-12 01:15:00,35.1,27.6,30.00,East,80,6.0,8.0,74,0.00,CLR,,0.00,WeatherDisplay:10.37,2013-02-12 01:15:00,
2013-02-12 01:30:00,35.1,27.3,30.00,East,85,5.0,7.0,73,0.00,CLR,,0.00,WeatherDisplay:10.37,2013-02-12 01:30:00,
2013-02-12 01:45:00,35.1,27.3,30.00,ENE,65,5.0,6.0,73,0.00,CLR,,0.00,WeatherDisplay:10.37,2013-02-12 01:45:00,
2013-02-12 02:00:00,34.9,27.1,30.00,ENE,63,2.0,6.0,73,0.00,CLR,,0.00,WeatherDisplay:10.37,2013-02-12 02:00:00,
2013-02-12 02:15:00,34.9,27.4,30.00,NE,48,8.0,8.0,74,0.00,CLR,,0.00,WeatherDisplay:10.37,2013-02-12 02:15:00,
2013-02-12 02:30:00,34.9,27.4,30.00,NE,55,5.0,8.0,74,0.00,CLR,,0.00,WeatherDisplay:10.37,2013-02-12 02:30:00,
2013-02-12 02:45:00,34.9,27.4,30.00,NE,53,6.0,8.0,74,0.00,CLR,,0.00,WeatherDisplay:10.37,2013-02-12 02:45:00,
2013-02-12 03:00:00,34.9,27.8,30.00,ENE,67,6.0,8.0,75,0.00,CLR,,0.00,WeatherDisplay:10.37,2013-02-12 03:00:00,
2013-02-12 03:15:00,34.9,27.8,30.03,NE,54,7.0,8.0,75,0.00,CLR,,0.00,WeatherDisplay:10.37,2013-02-12 03:15:00,
2013-02-12 03:30:00,34.9,28.1,30.03,ENE,63,3.0,8.0,76,0.00,CLR,,0.00,WeatherDisplay:10.37,2013-02-12 03:30:00,
2013-02-12 03:45:00,34.9,28.1,30.03,ENE,71,5.0,7.0,76,0.00,CLR,,0.00,WeatherDisplay:10.37,2013-02-12 03:45:00,
2013-02-12 04:00:00,34.9,28.1,30.03,ENE,68,2.0,7.0,76,0.00,CLR,,0.00,WeatherDisplay:10.37,2013-02-12 04:00:00,
2013-02-12 04:15:00,34.9,28.4,30.03,East,81,5.0,6.0,77,0.00,CLR,,0.00,WeatherDisplay:10.37,2013-02-12 04:15:00,
2013-02-12 04:30:00,34.9,28.4,30.03,NE,37,5.0,9.0,77,0.00,CLR,,0.00,WeatherDisplay:10.37,2013-02-12 04:30:00,
2013-02-12 04:45:00,34.7,28.2,30.03,NE,45,6.0,6.0,77,0.00,CLR,,0.00,WeatherDisplay:10.37,2013-02-12 04:45:00,
2013-02-12 05:00:00,34.7,28.2,30.03,NE,52,3.0,6.0,77,0.00,CLR,,0.00,WeatherDisplay:10.37,2013-02-12 05:00:00,
2013-02-12 05:15:00,34.7,28.5,30.03,ENE,67,3.0,5.0,78,0.00,CLR,,0.00,WeatherDisplay:10.37,2013-02-12 05:15:00,
2013-02-12 05:30:00,34.5,28.4,30.06,NE,51,1.0,6.0,78,0.00,CLR,,0.00,WeatherDisplay:10.37,2013-02-12 05:30:00,
2013-02-12 05:45:00,34.5,28.4,30.03,NE,45,5.0,5.0,78,0.00,CLR,,0.00,WeatherDisplay:10.37,2013-02-12 05:45:00,
2013-02-12 06:00:00,34.5,28.7,30.06,ENE,57,5.0,5.0,79,0.00,CLR,,0.00,WeatherDisplay:10.37,2013-02-12 06:00:00,
2013-02-12 06:15:00,34.5,28.7,30.06,North,0,5.0,5.0,79,0.00,CLR,,0.00,WeatherDisplay:10.37,2013-02-12 06:15:00,
2013-02-12 06:30:00,34.5,28.7,30.06,NE,43,2.0,5.0,79,0.00,CLR,,0.00,WeatherDisplay:10.37,2013-02-12 06:30:00,
2013-02-12 06:45:00,34.5,29.0,30.06,NE,45,2.0,4.0,80,0.00,CLR,,0.00,WeatherDisplay:10.37,2013-02-12 06:45:00,
2013-02-12 07:00:00,34.5,29.0,30.06,ENE,68,5.0,5.0,80,0.00,CLR,,0.00,WeatherDisplay:10.37,2013-02-12 07:00:00,
2013-02-12 07:15:00,34.5,29.0,30.06,NE,45,3.0,5.0,80,0.00,CLR,,0.00,WeatherDisplay:10.37,2013-02-12 07:15:00,
2013-02-12 07:30:00,34.5,28.7,30.09,ENE,59,3.0,7.0,79,0.00,CLR,,0.00,WeatherDisplay:10.37,2013-02-12 07:30:00,
2013-02-12 07:45:00,34.5,28.7,30.09,NE,40,5.0,5.0,79,0.00,CLR,,0.00,WeatherDisplay:10.37,2013-02-12 07:45:00,
2013-02-12 08:00:00,34.5,28.4,30.09,NE,54,5.0,9.0,78,0.00,CLR,,0.00,WeatherDisplay:10.37,2013-02-12 08:00:00,
2013-02-12 08:15:00,34.7,28.5,30.09,ENE,62,5.0,6.0,78,0.00,CLR,,0.00,WeatherDisplay:10.37,2013-02-12 08:15:00,
2013-02-12 08:30:00,34.9,28.4,30.09,ENE,63,7.0,7.0,77,0.00,CLR,,0.00,WeatherDisplay:10.37,2013-02-12 08:30:00,
2013-02-12 08:45:00,35.1,28.3,30.09,NE,45,3.0,7.0,76,0.00,CLR,,0.00,WeatherDisplay:10.37,2013-02-12 08:45:00,
2013-02-12 09:00:00,35.4,28.3,30.09,ENE,77,3.0,6.0,75,0.00,CLR,,0.00,WeatherDisplay:10.37,2013-02-12 09:00:00,
2013-02-12 09:15:00,35.4,28.0,30.09,NE,52,3.0,8.0,74,0.00,CLR,,0.00,WeatherDisplay:10.37,2013-02-12 09:15:00,
2013-02-12 09:30:00,35.6,27.8,30.09,ENE,65,7.0,8.0,73,0.00,CLR,,0.00,WeatherDisplay:10.37,2013-02-12 09:30:00,
2013-02-12 09:45:00,35.8,28.0,30.12,NE,46,3.0,8.0,73,0.00,CLR,,0.00,WeatherDisplay:10.37,2013-02-12 09:45:00,
2013-02-12 10:00:00,35.8,28.0,30.12,NNE,31,5.0,5.0,73,0.00,CLR,,0.00,WeatherDisplay:10.37,2013-02-12 10:00:00,
2013-02-12 10:15:00,36.1,28.3,30.12,ENE,72,2.0,5.0,73,0.00,CLR,,0.00,WeatherDisplay:10.37,2013-02-12 10:15:00,
2013-02-12 10:30:00,36.1,28.3,30.12,East,83,2.0,6.0,73,0.00,CLR,,0.00,WeatherDisplay:10.37,2013-02-12 10:30:00,
2013-02-12 10:45:00,36.3,28.2,30.12,East,87,2.0,4.0,72,0.00,CLR,,0.00,WeatherDisplay:10.37,2013-02-12 10:45:00,
2013-02-12 11:00:00,36.7,27.5,30.12,East,97,5.0,6.0,69,0.00,CLR,,0.00,WeatherDisplay:10.37,2013-02-12 11:00:00,
2013-02-12 11:15:00,36.9,28.0,30.12,ENE,71,2.0,5.0,70,0.00,CLR,,0.00,WeatherDisplay:10.37,2013-02-12 11:15:00,
2013-02-12 11:30:00,37.0,28.2,30.12,ENE,68,8.0,8.0,70,0.00,CLR,,0.00,WeatherDisplay:10.37,2013-02-12 11:30:00,
2013-02-12 11:45:00,37.4,27.8,30.12,East,90,6.0,8.0,68,0.00,CLR,,0.00,WeatherDisplay:10.37,2013-02-12 11:45:00,
2013-02-12 12:00:00,37.4,27.1,30.12,ESE,104,5.0,6.0,66,0.00,CLR,,0.00,WeatherDisplay:10.37,2013-02-12 12:00:00,
2013-02-12 12:15:00,37.6,27.6,30.12,ESE,112,5.0,6.0,67,0.00,CLR,,0.00,WeatherDisplay:10.37,2013-02-12 12:15:00,
2013-02-12 12:30:00,37.6,27.2,30.12,ESE,103,5.0,5.0,66,0.00,CLR,,0.00,WeatherDisplay:10.37,2013-02-12 12:30:00,
2013-02-12 12:45:00,37.8,27.4,30.12,East,90,2.0,6.0,66,0.00,CLR,,0.00,WeatherDisplay:10.37,2013-02-12 12:45:00,
2013-02-12 13:00:00,38.1,27.0,30.12,East,92,3.0,8.0,64,0.00,CLR,,0.00,WeatherDisplay:10.37,2013-02-12 13:00:00,
2013-02-12 13:15:00,38.8,27.6,30.12,NE,48,3.0,5.0,64,0.00,CLR,,0.00,WeatherDisplay:10.37,2013-02-12 13:15:00,
2013-02-12 13:30:00,39.2,27.3,30.12,ESE,107,6.0,9.0,62,0.00,CLR,,0.00,WeatherDisplay:10.37,2013-02-12 13:30:00,
2013-02-12 13:45:00,39.0,27.1,30.12,SE,127,2.0,9.0,62,0.00,CLR,,0.00,WeatherDisplay:10.37,2013-02-12 13:45:00,
2013-02-12 14:00:00,38.7,26.4,30.12,SSE,157,6.0,6.0,61,0.00,CLR,,0.00,WeatherDisplay:10.37,2013-02-12 14:00:00,
2013-02-12 14:15:00,38.7,26.8,30.12,SSE,152,3.0,10.0,62,0.00,CLR,,0.00,WeatherDisplay:10.37,2013-02-12 14:15:00,
2013-02-12 14:30:00,38.5,26.6,30.12,SE,137,6.0,7.0,62,0.00,CLR,,0.00,WeatherDisplay:10.37,2013-02-12 14:30:00,
2013-02-12 14:45:00,38.5,27.0,30.12,ESE,120,1.0,6.0,63,0.00,CLR,,0.00,WeatherDisplay:10.37,2013-02-12 14:45:00,
2013-02-12 15:00:00,38.3,26.8,30.12,SE,135,6.0,6.0,63,0.00,CLR,,0.00,WeatherDisplay:10.37,2013-02-12 15:00:00,
2013-02-12 15:15:00,38.1,27.0,30.12,ESE,112,6.0,6.0,64,0.00,CLR,,0.00,WeatherDisplay:10.37,2013-02-12 15:15:00,
2013-02-12 15:30:00,37.9,27.2,30.12,ESE,106,2.0,6.0,65,0.00,CLR,,0.00,WeatherDisplay:10.37,2013-02-12 15:30:00,
2013-02-12 15:45:00,37.8,27.4,30.12,SE,130,0.0,7.0,66,0.00,CLR,,0.00,WeatherDisplay:10.37,2013-02-12 15:45:00,
2013-02-12 16:00:00,37.8,28.1,30.12,East,90,2.0,3.0,68,0.00,CLR,,0.00,WeatherDisplay:10.37,2013-02-12 16:00:00,
2013-02-12 16:15:00,37.6,28.3,30.12,ENE,78,2.0,5.0,69,0.00,CLR,,0.00,WeatherDisplay:10.37,2013-02-12 16:15:00,
2013-02-12 16:30:00,37.4,28.2,30.12,East,84,0.0,3.0,69,0.00,CLR,,0.00,WeatherDisplay:10.37,2013-02-12 16:30:00,
2013-02-12 16:45:00,37.2,28.3,30.12,ENE,70,2.0,5.0,70,0.00,CLR,,0.00,WeatherDisplay:10.37,2013-02-12 16:45:00,
2013-02-12 17:00:00,37.0,28.2,30.12,East,96,1.0,6.0,70,0.00,CLR,,0.00,WeatherDisplay:10.37,2013-02-12 17:00:00,
2013-02-12 17:15:00,36.9,28.3,30.12,East,90,1.0,5.0,71,0.00,CLR,,0.00,WeatherDisplay:10.37,2013-02-12 17:15:00,
2013-02-12 17:30:00,36.9,28.3,30.12,East,86,3.0,4.0,71,0.00,CLR,,0.00,WeatherDisplay:10.37,2013-02-12 17:30:00,
2013-02-12 17:45:00,36.7,28.5,30.12,East,90,2.0,3.0,72,0.00,CLR,,0.00,WeatherDisplay:10.37,2013-02-12 17:45:00,
2013-02-12 18:00:00,36.5,28.3,30.15,East,90,1.0,3.0,72,0.00,CLR,,0.00,WeatherDisplay:10.37,2013-02-12 18:00:00,
2013-02-12 18:15:00,36.5,28.7,30.15,ENE,61,2.0,4.0,73,0.00,CLR,,0.00,WeatherDisplay:10.37,2013-02-12 18:15:00,
2013-02-12 18:30:00,36.3,28.5,30.12,East,87,2.0,5.0,73,0.00,CLR,,0.00,WeatherDisplay:10.37,2013-02-12 18:30:00,
2013-02-12 18:45:00,36.1,28.3,30.12,East,83,2.0,3.0,73,0.00,CLR,,0.00,WeatherDisplay:10.37,2013-02-12 18:45:00,
2013-02-12 19:00:00,36.1,28.6,30.12,East,90,1.0,4.0,74,0.00,CLR,,0.00,WeatherDisplay:10.37,2013-02-12 19:00:00,
2013-02-12 19:15:00,36.1,28.6,30.12,East,90,3.0,5.0,74,0.00,CLR,,0.00,WeatherDisplay:10.37,2013-02-12 19:15:00,
2013-02-12 19:30:00,36.1,28.3,30.12,East,90,3.0,4.0,73,0.00,CLR,,0.00,WeatherDisplay:10.37,2013-02-12 19:30:00,
2013-02-12 19:45:00,36.3,28.5,30.15,ENE,78,2.0,3.0,73,0.00,CLR,,0.00,WeatherDisplay:10.37,2013-02-12 19:45:00,
2013-02-12 20:00:00,36.3,28.5,30.15,ENE,70,2.0,7.0,73,0.00,CLR,,0.00,WeatherDisplay:10.37,2013-02-12 20:00:00,
2013-02-12 20:15:00,36.3,28.5,30.12,ESE,109,2.0,5.0,73,0.00,CLR,,0.00,WeatherDisplay:10.37,2013-02-12 20:15:00,
2013-02-12 20:30:00,36.1,28.3,30.15,ENE,68,3.0,5.0,73,0.00,CLR,,0.00,WeatherDisplay:10.37,2013-02-12 20:30:00,
2013-02-12 20:45:00,36.0,28.5,30.15,East,87,2.0,4.0,74,0.00,CLR,,0.00,WeatherDisplay:10.37,2013-02-12 20:45:00,
2013-02-12 21:00:00,36.0,28.5,30.15,NE,55,1.0,6.0,74,0.00,CLR,,0.00,WeatherDisplay:10.37,2013-02-12 21:00:00,
2013-02-12 21:15:00,36.0,28.5,30.12,East,93,5.0,6.0,74,0.00,CLR,,0.00,WeatherDisplay:10.37,2013-02-12 21:15:00,
2013-02-12 21:30:00,35.8,28.3,30.12,East,94,3.0,5.0,74,0.00,CLR,,0.00,WeatherDisplay:10.37,2013-02-12 21:30:00,
2013-02-12 21:45:00,35.8,28.6,30.15,East,90,0.0,6.0,75,0.00,CLR,,0.00,WeatherDisplay:10.37,2013-02-12 21:45:00,
2013-02-12 22:00:00,35.6,28.5,30.12,East,93,3.0,5.0,75,0.00,CLR,,0.00,WeatherDisplay:10.37,2013-02-12 22:00:00,
2013-02-12 22:15:00,35.6,28.5,30.15,SE,131,3.0,4.0,75,0.00,CLR,,0.00,WeatherDisplay:10.37,2013-02-12 22:15:00,
2013-02-12 22:30:00,35.6,28.5,30.12,East,92,2.0,6.0,75,0.00,CLR,,0.00,WeatherDisplay:10.37,2013-02-12 22:30:00,
2013-02-12 22:45:00,35.6,28.5,30.12,East,90,3.0,4.0,75,0.00,CLR,,0.00,WeatherDisplay:10.37,2013-02-12 22:45:00,
2013-02-12 23:00:00,35.6,28.5,30.12,ESE,102,1.0,6.0,75,0.00,CLR,,0.00,WeatherDisplay:10.37,2013-02-12 23:00:00,
2013-02-12 23:15:00,35.6,28.5,30.12,ESE,102,1.0,5.0,75,0.00,CLR,,0.00,WeatherDisplay:10.37,2013-02-12 23:15:00,
2013-02-12 23:30:00,35.4,28.0,30.12,East,88,3.0,6.0,74,0.00,CLR,,0.00,WeatherDisplay:10.37,2013-02-12 23:30:00,
2013-02-12 23:45:00,35.4,27.6,30.12,ENE,74,6.0,6.0,73,0.00,CLR,,0.00,WeatherDisplay:10.37,2013-02-12 23:45:00,